Regional Weather Roundup
Issued by NWS

Home | Current Version | Previous Version | Text Only | Print | Product List | Glossary On
Versions: 1 2 3 4 5 6 7 8 9 10 11 12 13 14 15 16 17 18 19 20 21 22 23 24 25 26 27 28 29 30 31 32 33 34 35 36 37 38 39 40 41 42 43 44 45 46 47 48 49 50
000
ASUS43 KDMX 131106
RWRIA

WEATHER ROUNDUP FOR IOWA
NATIONAL WEATHER SERVICE DES MOINES IA
500 AM CST WED NOV 13 2019

NOTE: "FAIR" INDICATES FEW OR NO CLOUDS BELOW 12,000 FEET WITH NO
SIGNIFICANT WEATHER AND/OR OBSTRUCTIONS TO VISIBILITY.

* - THESE STATIONS ARE NOT NWS STATIONS...THUS NOT UNDER NWS
QUALITY CONTROL.  THEY ALSO DO NOT REPORT WEATHER SUCH
AS PRECIPITATION OR FOG.

IAZ001>003-012>014-020>022-031>034-043>046-131200-
   NORTHWEST IOWA

CITY           SKY/WX    TMP DP  RH WIND       PRES   REMARKS
CARROLL *      CLOUDY    25  16  68 S14       29.90R WCI  13
CHEROKEE *     CLOUDY    28  16  61 SW12G21   29.87S WCI  17
DENISON *      CLOUDY    23  16  74 S10G17    29.92R WCI  12
LE MARS *      CLOUDY    27  19  74 S10G16    29.85S WCI  17
SHELDON *      CLOUDY    27  18  69 S8G16     29.82R WCI  18
SPENCER        CLOUDY    28  15  58 S12       29.85S WCI  18
STORM LAKE *   CLOUDY    25  16  68 SW18      29.83R WCI  11
$$

IAZ055>058-069>071-079>083-090>094-131200-
   SOUTHWEST IOWA

CITY           SKY/WX    TMP DP  RH WIND       PRES   REMARKS
ATLANTIC *     CLEAR     21  14  73 S15       29.93S WCI   8
AUDUBON *      CLEAR     21  14  73 S12G17    29.92R WCI   9
CLARINDA *     CLEAR     21  16  79 S9        30.00S WCI  11
COUNCIL BLFS * CLEAR     23  12  63 S10G17    29.90R WCI  12
CRESTON *      CLEAR     18  18 100 S12       29.96F WCI   5
HARLAN  *      CLEAR     21  14  73 S10       29.92R WCI  10
LAMONI         CLEAR     19  11  70 S12G22    30.00F WCI   7
RED OAK *      PTCLDY    23  14  68 S10       29.95F WCI  12
SHENANDOAH *   CLEAR     23  14  68 S7        29.95F WCI  15
$$

IAZ047>049-059>061-072>074-084-131200-
   CENTRAL IOWA

CITY           SKY/WX    TMP DP  RH WIND       PRES   REMARKS
AMES           CLOUDY    21  13  71 S12       29.97F WCI   9
ANKENY *       PTCLDY    19  12  73 S13       30.00F WCI   7
BOONE *        CLOUDY    21  16  79 S12       29.94S WCI   9
CHARITON *     CLEAR     19  12  73 S16       30.00F WCI   5
DES MOINES     CLOUDY    20  11  68 S12       29.99F WCI   8
GRINNELL*      PTCLDY    17  10  75 S10       30.03F WCI   5
MARSHALLTOWN   CLOUDY    17  11  77 S14       29.99F WCI   3
NEWTON *       PTCLDY    19  12  73 S10       30.01F WCI   8
PELLA *        CLEAR     20  11  68 S10       30.05S WCI   9
PERRY *        CLOUDY    19  11  70 S9        29.95F WCI   8
$$

IAZ004>006-015-016-023>025-035-036-131200-
   NORTH CENTRAL IOWA

CITY           SKY/WX    TMP DP  RH WIND       PRES   REMARKS
ALGONA *       CLOUDY    21  16  79 S16       29.86S WCI   7
CLARION *      CLOUDY    19  14  79 S15       29.92F WCI   5
ESTHERVILLE    CLOUDY    23  14  68 S12       29.85R WCI  12
FORT DODGE *   CLOUDY    22  16  78 S13       29.91F WCI  10
MASON CITY     CLOUDY    19  11  70 S15G25    29.93F WCI   5
FOREST CITY *  CLOUDY    21  14  73 S17       29.89F WCI   7
WEBSTER CITY * CLOUDY    23  16  74 S14G20    29.91F WCI  11
IOWA FALLS *   CLOUDY    20  11  68 S12G17    29.97F WCI   8
$$

IAZ007>011-017>019-026>030-037>042-050>054-066-131200-
   NORTHEAST IOWA

CITY           SKY/WX    TMP DP  RH WIND       PRES   REMARKS
CEDAR RAPIDS   FAIR      15   7  70 S15G24    30.07F WCI   0
CHARLES CITY * CLOUDY    16   9  73 S15G23    29.97F WCI   1
CLINTON *      FAIR      15   8  73 S14       30.16F WCI   0
DECORAH *      CLOUDY    16   9  73 S16G24    29.98F WCI   0
DUBUQUE        FAIR      15   5  64 S21G30    30.06F WCI  -2
MONTICELLO *   FAIR      18   7  62 S13G21    30.09F WCI   4
OELWEIN *      CLOUDY    16  10  79 S20       30.02F WCI  -1
WATERLOO       CLOUDY    18   8  65 S15       30.02F WCI   4
$$

IAZ064-065-067-068-078-131200-
   EAST CENTRAL IOWA

CITY           SKY/WX    TMP DP  RH WIND       PRES   REMARKS
DAVENPORT      FAIR      17   6  62 S13G23    30.16F WCI   4
IOWA CITY      FAIR      18   7  62 S14       30.13F WCI   4
MT. PLEASANT * CLEAR     18  10  73 S17G23    30.14F WCI   2
MUSCATINE *    FAIR      18   9  68 S13G18    30.16F WCI   4
QUAD CITIES    FAIR      17   6  62 S10G20    30.16F WCI   5
$$

IAZ062-063-075>077-085>089-095>099-131200-
   SOUTHEAST IOWA

CITY           SKY/WX    TMP DP  RH WIND       PRES   REMARKS
BURLINGTON     CLEAR     16   6  65 S17G29    30.17F WCI   0
FAIRFIELD *    CLEAR     16   9  73 S15G22    30.09F WCI   1
FORT MADISON * CLEAR     12   9  85 S13       30.17F WCI  -3
KEOKUK *       CLEAR     16   9  73 S9        30.17F WCI   4
OSKALOOSA *    FAIR      18  12  75 S9        30.05F WCI   7
CENTERVILLE *  FAIR      19  12  73 S15       30.06F WCI   5
OTTUMWA        CLEAR     16   8  71 S14       30.06F WCI   2
WASHINGTON *   CLEAR     16   9  73 S16G22    30.09F WCI   0
$$

ABBREVIATIONS USED IN REMARKS
   TC - TEMPERATURES IN CELSIUS
  WCI - WIND CHILL INDEX
   HX - HEAT INDEX
  VSB - VISIBILITY
$$




USA.gov is the U.S. government's official web portal to all federal, state and local government web resources and services.